TimeAKDT,TemperatureF,Dew PointF,Humidity,Sea Level PressureIn,VisibilityMPH,Wind Direction,Wind SpeedMPH,Gust SpeedMPH,PrecipitationIn,Events,Conditions,WindDirDegrees,DateUTC
12:53 AM,44.1,44.1,100,29.57,10.0,North,6.9,-,0.00,,Overcast,360,2013-09-26 08:53:00
1:53 AM,42.1,42.1,100,29.57,10.0,North,4.6,-,N/A,,Mostly Cloudy,350,2013-09-26 09:53:00
2:53 AM,43.0,43.0,100,29.57,10.0,North,9.2,-,N/A,,Overcast,360,2013-09-26 10:53:00
3:41 AM,42.8,42.8,100,29.57,10.0,North,12.7,-,0.00,Rain,Light Rain,10,2013-09-26 11:41:00
3:53 AM,43.0,43.0,100,29.58,10.0,North,11.5,-,0.00,,Overcast,10,2013-09-26 11:53:00
4:53 AM,42.1,42.1,100,29.59,10.0,NNE,11.5,-,0.00,Rain,Light Rain,20,2013-09-26 12:53:00
5:07 AM,42.8,42.8,100,29.58,10.0,NNE,8.1,-,0.00,Rain,Light Rain,20,2013-09-26 13:07:00
5:21 AM,42.8,42.8,100,29.58,10.0,NNE,9.2,-,0.00,Rain,Light Rain,20,2013-09-26 13:21:00
5:53 AM,42.1,42.1,100,29.59,10.0,NNE,10.4,-,0.00,,Overcast,30,2013-09-26 13:53:00
6:53 AM,42.1,42.1,100,29.60,10.0,NNE,6.9,-,0.03,Rain,Light Rain,20,2013-09-26 14:53:00
7:53 AM,41.0,41.0,100,29.61,10.0,NNE,9.2,-,0.00,,Overcast,20,2013-09-26 15:53:00
8:53 AM,41.0,41.0,100,29.62,10.0,NNE,8.1,-,N/A,,Overcast,30,2013-09-26 16:53:00
9:53 AM,41.0,41.0,100,29.63,10.0,NNE,8.1,-,N/A,,Overcast,30,2013-09-26 17:53:00
10:53 AM,43.0,43.0,100,29.63,10.0,NE,6.9,-,N/A,,Overcast,50,2013-09-26 18:53:00
11:53 AM,43.0,43.0,100,29.62,10.0,NE,8.1,-,N/A,,Overcast,50,2013-09-26 19:53:00
12:53 PM,44.1,44.1,100,29.62,10.0,South,3.5,-,N/A,,Overcast,170,2013-09-26 20:53:00
1:53 PM,44.1,44.1,100,29.60,10.0,Calm,Calm,-,N/A,,Overcast,0,2013-09-26 21:53:00
2:40 PM,44.6,42.8,93,29.58,10.0,South,4.6,-,N/A,,Overcast,190,2013-09-26 22:40:00
2:53 PM,44.1,44.1,100,29.57,10.0,Calm,Calm,-,N/A,,Overcast,0,2013-09-26 22:53:00
3:06 PM,44.6,42.8,93,29.56,10.0,Calm,Calm,-,N/A,,Overcast,0,2013-09-26 23:06:00
3:28 PM,46.4,44.6,93,29.55,10.0,Calm,Calm,-,N/A,,Overcast,0,2013-09-26 23:28:00
3:53 PM,45.0,44.1,97,29.55,10.0,SSE,4.6,-,N/A,,Overcast,150,2013-09-26 23:53:00
4:53 PM,45.0,44.1,97,29.52,10.0,WSW,3.5,-,N/A,,Overcast,250,2013-09-27 00:53:00
5:15 PM,44.6,44.6,100,29.50,10.0,Calm,Calm,-,0.00,Rain,Light Rain,0,2013-09-27 01:15:00
5:53 PM,45.0,44.1,97,29.50,10.0,Calm,Calm,-,0.00,,Overcast,0,2013-09-27 01:53:00
6:53 PM,44.1,44.1,100,29.47,10.0,Calm,Calm,-,0.01,,Overcast,0,2013-09-27 02:53:00
7:53 PM,44.1,44.1,100,29.42,7.0,Calm,Calm,-,0.02,Rain,Light Rain,0,2013-09-27 03:53:00
8:46 PM,44.6,44.6,100,29.37,6.0,Calm,Calm,-,0.04,Rain,Light Rain,0,2013-09-27 04:46:00
8:53 PM,44.1,44.1,100,29.37,8.0,Calm,Calm,-,0.05,Rain,Light Rain,0,2013-09-27 04:53:00
9:34 PM,42.8,42.8,100,29.32,10.0,NNE,4.6,-,0.00,,Overcast,20,2013-09-27 05:34:00
9:53 PM,42.1,42.1,100,29.31,10.0,NNE,5.8,-,0.00,,Scattered Clouds,30,2013-09-27 05:53:00
10:15 PM,41.0,41.0,100,29.28,2.0,NE,5.8,-,N/A,,Mostly Cloudy,50,2013-09-27 06:15:00
10:19 PM,41.0,41.0,100,29.28,0.8,NE,6.9,-,N/A,,Mostly Cloudy,40,2013-09-27 06:19:00
10:26 PM,41.0,41.0,100,29.28,0.2,NE,6.9,-,N/A,Fog,Fog,40,2013-09-27 06:26:00
10:45 PM,41.0,41.0,100,29.26,0.5,NNE,6.9,-,N/A,Fog,Fog,20,2013-09-27 06:45:00
10:53 PM,41.0,41.0,100,29.26,1.0,NNE,6.9,-,N/A,,Mist,30,2013-09-27 06:53:00
10:59 PM,41.0,-9999,N/A,29.25,3.0,NNE,5.8,-,N/A,,Overcast,30,2013-09-27 06:59:00
11:14 PM,41.0,-9999,N/A,29.23,10.0,NNE,6.9,-,N/A,,Mostly Cloudy,20,2013-09-27 07:14:00
11:53 PM,41.0,-9999,N/A,29.21,10.0,NE,8.1,-,N/A,,Overcast,40,2013-09-27 07:53:00